Showing default

GRACE-FO 2, 43477

Orbit data source: Space-Track

GRACE-FO 2, 43477 is an American payload satellite in LEO that was launched on Tue, 22 May 2018 UTC via an FALCON 9 launch vehicle from the Air Force Western Test Range (AFWTR). Payload-class satellites include a variety of spacecraft equipped with specific instruments for various scientific and technological missions. These include communications satellites like Starlink; space stations such as the ISS; scientific satellites like the Hubble; Earth observation satellites from companies like Planet Labs, Umbra, and HawkEye 360; GPS; miniature CubeSats for education and research; and military/defense satellites.

Loading next visibility...
Identifier
43477, 2018-047B
Orbit
LEO
Country
Flag of USUS
Related business
Manufacturer
ADS/Bremen
Mission
Operational Civil Science
Bus & Motor
FLEXBUS, N2 AOCS
Mass
600 kg wet, ~500 kg dry
Launch date (UTC)
2018-05-22 (7 years ago)
Launch vehicle
FALCON 9
Launch site
Air Force Western Test Range (AFWTR)
Object type
Payload
Rocket body
Debris
Shape & HBR
Half Hex Poly, 1.6 m
Radar Cross Section
5.603 m², Medium (>0.1 m² and < 1m²)

Expand to show TLE details & history
Last TLE update: 14 hours ago

TLE from 14 hours ago
0 GRACE-FO 2
1 43477U 18047B   25260.22541095  .00004447  00000-0  12833-3 0  9997
2 43477  88.9784 235.5805 0014990  94.2216 266.0751 15.35333123407878
Epoch: 2025-09-17T05:24Z
TLE epoch observation values (Epoch: 2025-09-17T05:24:35.506Z)
Latitude
-0.00001°
Longitude
158.02815°
Altitude
463.865 km
Speed
7.634 km/s
True Right ascension
15h 42m 19s
True Declination
0° 00' 00"
Sunlit
Object was in daylight at epoch
Visualization orbit readout
Latitude
Unknown
Longitude
Unknown
Altitude
Unknown
Speed
Unknown
Apparent Right ascension
Unknown
Apparent Declination
Unknown
Sunlit
N/A
Visualization observer readout
Local Sidereal Time
12:30:29
Azimuth
Unknown
Elevation
Unknown
Doppler factor
Unknown
Orbital elements
Apogee altitude
466.965 km
Perigee altitude
446.474 km
Semi-major axis
6,834.856 km
Eccentricity
0.0015
Inclination
88.9784°
RAAN
235.5805°
Arg. of periapsis
94.2216°
True anomaly
265.90375°
Mean anomaly
266.0751°
Eccentric anomaly
265.98942°
Mean motion
3.84104 °/min
Orbital period
93.72 mins
BSTAR
0.00012833
Loading maneuver chart data...
Computing Atmospheric mass density...
Loading historical data...
Loading historical data...
Loading historical data...
Loading historical data...
Loading historical data...
Loading historical data...
Loading historical data...

Documentation

Showing up to 5 results
|